This is the latest recevied weather packets stored in our database for station/object 9A7DI-13. If no packets are shown the sender has not sent any weather packets the latest 10 day(s).
| Time | Temp. | Humidity | Pressure | Rain* | Wind** | Luminosity | Snow |
|---|---|---|---|---|---|---|---|
| 1777814233 | 21.67° C | 30% | 1027.2 hPa | - | - | - | - |
| 1777813633 | 22.22° C | 32% | 1027.3 hPa | - | - | - | - |
| 1777813033 | 22.22° C | 32% | 1027.4 hPa | - | - | - | - |
| 1777812433 | 22.22° C | 33% | 1027.5 hPa | - | - | - | - |
| 1777811833 | 22.22° C | 32% | 1027.6 hPa | - | - | - | - |
| 1777811233 | 22.22° C | 32% | 1027.7 hPa | - | - | - | - |
| 1777810633 | 22.22° C | 33% | 1027.8 hPa | - | - | - | - |
| 1777810033 | 22.22° C | 31% | 1027.9 hPa | - | - | - | - |
| 1777809433 | 22.22° C | 33% | 1028 hPa | - | - | - | - |
| 1777808833 | 21.67° C | 30% | 1028.1 hPa | - | - | - | - |
| 1777808233 | 22.78° C | 31% | 1028.1 hPa | - | - | - | - |
| 1777807633 | 22.78° C | 30% | 1028.1 hPa | - | - | - | - |
| 1777807033 | 21.11° C | 32% | 1028.2 hPa | - | - | - | - |
| 1777806433 | 22.78° C | 31% | 1028.3 hPa | - | - | - | - |
| 1777805833 | 22.22° C | 31% | 1028.5 hPa | - | - | - | - |
| 1777805233 | 22.22° C | 29% | 1028.6 hPa | - | - | - | - |
| 1777804633 | 22.22° C | 30% | 1028.6 hPa | - | - | - | - |
| 1777804033 | 22.22° C | 29% | 1028.7 hPa | - | - | - | - |
| 1777803433 | 23.33° C | 28% | 1028.7 hPa | - | - | - | - |
| 1777802833 | 23.33° C | 32% | 1028.8 hPa | - | - | - | - |
| 1777802233 | 23.33° C | 29% | 1029 hPa | - | - | - | - |
| 1777801633 | 22.78° C | 30% | 1029 hPa | - | - | - | - |
| 1777801033 | 22.22° C | 32% | 1029 hPa | - | - | - | - |
| 1777800433 | 22.78° C | 30% | 1029 hPa | - | - | - | - |
| 1777799833 | 22.22° C | 30% | 1029.1 hPa | - | - | - | - |
* Rain since midnight (hover to see other rain measurements)
** Current wind speed in m/s (hover to see current wind gust speed)